Theta_e
304 304 304 304 304 304 305 305 305 304 304 298 296 298 292 288 284 297 301 305 299 292 284 288 286 285 289 292 291 293 291 290 292 291 292 291 292 292 290 290 289 290 289 289 287 283 282 283 281 284 285 286 289 287 290 290 290 290 285 287 288 301 284 283 280 282 284 289 289 290 291 291 289 289 286 286 285 285 283 279 281 284 284 283 281 279 281
304 303 303 304 304 304 304 305 305 304 304 299 298 292 291 291 290 293 303 304 299 290 281 282 282 287 290 291 290 294 293 292 290 291 291 291 285 290 290 291 292 290 291 290 288 288 280 284 284 283 286 286 292 290 290 291 289 290 286 286 293 283 281 281 279 279 283 286 285 287 290 290 285 283 286 287 286 286 286 286 285 284 286 285 283 277 283
304 303 303 303 303 304 304 305 305 305 303 302 296 288 291 291 294 295 297 302 297 287 289 286 284 286 286 287 286 289 291 294 293 292 290 294 292 291 288 291 292 290 291 289 290 290 288 281 286 286 287 287 290 291 289 291 288 292 294 303 293 285 281 283 277 274 273 275 277 278 279 283 285 286 286 288 288 285 286 282 281 280 283 286 283 283 289
303 303 303 303 304 304 304 305 305 305 305 302 296 291 292 291 282 289 290 294 294 293 296 292 288 286 286 284 287 290 289 292 295 295 293 294 293 291 291 292 292 289 290 288 289 290 291 287 284 284 285 287 291 290 291 290 290 298 305 302 292 284 285 283 281 279 277 278 278 282 283 283 283 286 287 287 288 287 286 282 279 281 280 283 285 289 290
303 303 303 303 304 304 304 305 305 305 304 304 299 296 292 291 284 285 284 291 292 290 292 290 290 285 290 283 289 286 288 290 292 299 286 295 293 292 291 290 290 288 289 286 287 289 290 292 288 287 287 287 289 291 291 291 294 305 304 301 290 284 284 284 283 284 284 283 284 290 287 286 285 285 286 286 287 287 287 283 282 282 286 281 287 293 291
303 303 303 304 304 304 304 305 305 305 305 305 301 293 295 286 289 293 293 286 281 283 285 290 289 290 290 286 290 286 286 288 285 293 298 298 296 289 289 293 294 293 292 290 284 286 287 288 287 293 293 291 292 289 289 290 297 303 295 299 291 285 281 286 288 288 290 291 291 292 291 290 289 289 287 286 288 286 286 285 284 287 282 283 289 293 292
303 304 304 304 304 304 305 305 306 305 304 303 297 291 295 295 294 294 297 287 290 288 290 291 289 288 289 286 288 286 287 285 289 291 291 293 291 293 283 288 292 293 294 288 287 285 283 284 288 290 289 291 288 288 288 289 294 297 293 293 289 290 283 289 289 288 290 291 290 291 291 288 289 288 288 288 287 286 285 285 286 288 284 286 290 292 293
303 303 304 304 304 304 305 305 306 305 303 301 297 295 293 292 291 290 296 293 290 290 288 288 288 284 290 285 286 288 286 286 290 292 291 284 289 294 290 291 294 294 293 289 286 290 289 290 288 293 290 287 289 288 287 287 293 293 292 293 291 292 284 292 288 284 287 290 291 290 291 289 287 287 288 288 288 288 287 286 288 290 289 290 291 291 291
303 303 304 304 304 304 305 306 306 305 304 297 296 297 299 299 301 300 294 290 290 292 289 288 287 284 284 284 287 289 288 289 292 291 295 291 289 292 290 292 293 293 292 292 292 293 293 292 293 295 290 289 295 290 291 294 289 291 292 293 293 294 288 287 284 283 283 288 287 288 289 289 287 285 287 287 286 287 287 287 288 288 288 290 291 288 288
303 304 304 304 304 304 305 305 306 305 304 299 299 295 304 303 305 304 297 287 293 290 293 292 290 285 289 290 290 289 288 292 293 285 289 293 295 294 294 293 293 289 291 291 294 297 296 297 299 298 300 301 299 298 297 294 290 290 291 290 288 290 290 285 284 285 278 288 286 286 284 286 284 282 285 288 286 286 288 288 290 291 293 289 287 289 296
303 303 304 304 304 304 305 305 306 306 305 299 297 296 299 297 296 298 298 287 287 291 290 289 287 291 293 294 291 291 290 291 292 286 284 293 296 298 296 295 292 287 290 297 301 302 300 299 300 300 300 299 298 298 298 299 297 294 291 288 289 291 292 284 284 284 282 285 284 285 284 278 278 286 290 290 288 286 287 286 288 292 290 290 292 295 297
303 303 303 304 304 304 305 305 306 306 305 304 303 298 300 302 300 299 291 286 286 292 290 288 289 291 290 292 292 289 289 290 289 292 289 291 294 296 295 294 291 287 296 300 302 301 301 301 300 298 298 298 299 299 298 296 296 297 295 293 290 289 287 284 284 285 284 282 284 282 278 277 288 291 290 290 289 289 288 288 287 288 289 291 293 295 296
303 303 303 303 303 304 305 305 305 306 306 305 304 298 302 304 298 296 294 291 287 290 288 291 295 295 295 294 291 291 292 293 293 293 293 292 292 295 296 295 292 295 302 301 300 299 296 292 291 291 292 293 294 296 296 295 295 296 295 295 293 288 288 281 283 280 281 281 279 279 276 287 291 291 290 292 293 291 292 289 289 288 287 291 292 295 296
302 302 303 303 303 303 304 305 305 305 306 306 302 301 302 302 297 297 294 288 288 292 294 292 294 294 295 294 293 292 293 292 292 293 291 294 293 294 297 300 300 301 302 300 295 291 288 285 284 284 287 287 287 288 291 293 295 294 294 294 294 293 288 286 284 283 282 281 283 283 287 288 288 287 289 288 286 289 288 285 287 288 287 290 293 295 296
302 302 302 303 303 303 304 304 305 305 306 306 304 303 302 302 301 298 300 295 287 290 292 286 292 294 295 294 293 289 285 286 288 288 292 295 295 298 299 301 301 301 302 301 292 288 286 283 282 282 283 282 280 283 288 288 292 295 294 293 293 292 290 287 285 280 282 283 281 283 281 278 284 288 290 291 291 290 289 288 285 286 289 291 295 294 296
301 301 302 302 302 303 303 304 304 305 306 306 304 302 302 303 302 301 298 294 291 286 290 296 298 296 294 292 291 291 287 284 286 286 288 289 294 296 299 299 299 302 301 296 291 285 282 282 281 278 280 281 281 285 282 287 286 292 293 294 293 291 289 286 285 282 281 279 280 278 277 279 287 291 291 293 292 292 290 287 283 287 292 295 296 295 295
301 301 302 302 302 303 303 303 304 305 305 305 301 301 300 304 301 299 298 297 296 288 297 299 298 297 294 292 291 288 289 287 289 285 284 286 292 295 296 298 298 301 298 291 288 285 284 283 281 280 280 285 283 282 287 283 283 285 291 289 290 287 283 283 284 279 277 278 277 275 277 280 285 290 291 293 293 292 288 280 281 289 292 295 296 295 294
301 301 301 302 302 302 303 303 304 305 305 306 303 300 299 304 303 303 300 297 291 292 298 301 299 294 292 291 289 295 296 294 291 290 288 289 291 293 294 296 295 298 300 291 286 284 282 281 281 279 281 289 290 288 280 283 282 281 284 283 282 283 283 282 282 280 279 279 273 275 279 284 286 291 293 293 293 290 283 281 282 292 294 296 296 295 294
300 301 301 301 301 302 303 303 304 304 305 305 303 301 300 302 304 304 302 299 297 289 298 303 304 300 301 306 301 299 298 296 292 289 283 284 291 295 296 296 297 291 293 286 283 282 282 284 285 281 282 284 288 282 286 284 282 287 285 282 284 283 282 283 282 281 280 272 278 279 278 283 289 292 294 294 291 283 283 285 290 295 295 296 296 294 295
300 300 301 301 301 302 303 303 303 304 305 305 304 297 299 301 303 304 301 297 298 296 300 301 302 300 304 300 297 295 295 294 290 286 287 287 292 293 287 287 291 291 288 284 282 284 281 282 282 285 281 282 285 288 283 284 289 284 283 283 281 284 283 281 281 278 277 273 275 276 277 285 295 294 292 293 285 283 285 290 294 298 297 296 295 295 295
300 300 300 301 301 302 302 303 303 304 305 305 304 299 297 301 301 303 305 303 299 293 292 300 303 303 304 302 302 302 299 295 293 292 294 293 294 289 283 283 287 289 287 284 284 285 281 283 284 283 285 285 287 287 283 282 287 291 290 286 285 288 282 279 279 281 280 275 277 279 284 285 296 296 290 292 290 290 293 295 294 294 296 296 295 295 294
299 300 300 301 302 302 303 303 304 304 305 305 304 299 295 299 302 304 304 305 299 294 295 301 305 304 306 307 306 304 303 304 304 303 296 291 291 294 289 291 292 291 292 289 286 285 286 283 286 284 283 286 285 282 284 281 281 286 290 290 285 287 284 284 285 284 279 279 280 282 288 289 291 291 291 292 294 294 296 296 297 295 294 295 295 293 292
299 300 300 301 302 302 302 303 303 304 305 305 303 296 296 297 298 306 306 300 302 303 304 303 305 301 303 303 306 307 305 308 309 305 301 297 288 290 293 293 290 297 296 290 288 286 286 286 284 286 285 285 286 284 284 281 282 286 284 289 287 291 290 287 287 285 288 288 288 289 289 290 290 291 292 293 294 295 295 296 295 295 296 296 294 293 293
299 300 300 301 301 302 302 303 304 304 304 305 303 299 297 296 297 299 304 304 297 293 291 290 290 288 293 296 299 298 300 300 305 306 307 304 292 286 290 294 296 296 291 293 291 293 286 284 287 286 284 287 289 282 284 283 282 286 285 285 285 290 291 286 284 288 286 283 286 287 289 290 291 291 292 293 293 294 296 296 296 294 294 294 294 294 294
299 300 300 301 301 302 302 303 304 304 304 304 304 303 300 297 297 298 296 290 285 286 286 288 287 296 299 302 300 297 300 301 301 304 303 302 299 295 292 298 299 296 295 296 292 288 284 285 287 284 284 288 291 285 286 285 285 286 283 283 285 287 290 288 285 283 280 281 287 288 289 289 291 291 292 292 292 293 293 294 294 295 295 295 294 295 294
299 300 300 300 301 302 302 303 303 304 304 304 305 299 295 295 298 301 299 296 291 289 288 285 288 297 300 300 298 299 299 299 299 299 300 301 302 300 299 299 298 297 295 292 291 287 283 284 282 282 286 288 291 284 283 286 286 286 285 284 286 287 291 283 284 283 286 288 289 289 289 289 290 291 292 293 293 293 293 294 294 294 294 294 294 295 295
299 299 300 300 301 302 302 303 303 303 303 304 303 300 298 298 299 298 295 295 293 284 283 283 284 293 298 297 300 299 297 298 298 297 297 298 298 296 296 294 295 292 292 290 287 283 282 283 283 286 285 289 288 286 287 287 285 283 284 289 290 289 284 286 287 285 284 285 287 290 287 286 287 289 291 292 293 294 293 293 294 294 293 293 293 294 296
299 299 300 300 301 302 302 302 303 303 303 304 303 299 298 297 299 301 298 298 297 286 285 281 285 293 297 296 299 297 297 299 296 296 295 296 296 296 295 293 291 291 288 290 290 285 281 285 288 284 284 288 285 287 286 286 284 284 284 288 288 286 286 287 285 285 285 288 291 289 288 289 289 291 291 292 294 294 293 293 293 294 294 294 294 294 294
299 299 300 300 301 301 302 302 302 303 303 303 300 296 297 300 301 300 300 300 296 292 288 288 289 289 288 293 297 297 295 298 297 295 294 294 295 294 294 293 291 289 287 286 283 282 282 286 283 287 288 291 287 285 282 283 278 281 284 288 289 288 291 292 291 289 289 291 292 291 291 289 291 291 292 293 294 294 293 293 294 294 294 294 295 295 294
299 299 300 300 301 301 302 302 302 303 303 300 295 286 286 292 298 298 300 302 298 295 290 287 285 286 291 293 294 294 295 295 296 296 295 293 294 293 293 292 291 291 290 286 284 286 286 286 282 284 290 290 286 281 277 279 279 284 285 287 289 290 291 291 291 291 288 291 292 291 291 292 293 293 293 294 295 295 293 293 293 293 293 295 295 295 296
299 300 300 300 300 301 301 302 302 303 302 298 293 284 284 285 291 301 302 300 299 296 287 287 289 287 286 291 293 293 293 294 295 294 294 294 293 293 293 291 290 289 284 283 284 286 283 284 282 287 288 290 283 278 281 279 280 282 287 288 287 290 291 291 290 292 293 293 293 293 293 293 292 293 292 292 293 294 294 293 295 296 294 295 295 295 295
299 299 300 300 300 301 301 302 302 303 301 297 290 287 287 290 293 297 301 302 299 297 292 288 283 282 283 284 289 294 294 296 296 293 290 293 295 293 292 293 292 290 290 285 284 283 285 283 283 286 287 290 286 279 280 279 280 283 286 287 289 289 290 291 292 293 294 295 294 292 291 290 293 292 291 292 293 294 294 293 294 295 296 295 296 296 295
299 299 300 300 301 301 301 302 303 302 298 300 303 304 304 304 304 304 304 298 297 288 286 284 283 283 281 285 291 293 296 293 292 290 292 291 295 290 289 289 287 288 296 288 286 285 285 281 281 284 288 285 280 278 278 277 280 284 286 289 289 290 290 291 293 294 294 296 296 291 289 291 291 291 293 294 294 294 294 293 294 295 294 295 294 293 292
299 299 300 300 300 301 301 302 303 303 303 298 292 290 297 303 303 304 299 296 291 287 286 287 283 282 283 286 288 290 294 290 287 286 285 287 291 288 286 286 286 287 289 288 286 286 286 283 285 283 282 283 278 278 281 283 285 287 288 289 289 289 291 292 292 292 291 290 291 293 294 293 292 293 293 293 293 294 295 294 295 294 294 294 293 292 291
299 299 299 300 300 301 302 303 297 293 288 288 291 293 297 305 305 305 302 296 288 284 285 285 282 281 280 279 275 282 291 289 289 284 285 286 289 291 286 285 282 283 287 288 282 281 282 286 285 282 284 281 280 282 277 283 286 287 288 288 289 290 291 291 289 290 289 291 293 292 292 293 293 292 292 292 292 293 294 294 295 294 292 291 290 290 290
299 299 300 300 300 301 298 299 294 292 289 289 291 299 304 305 305 302 299 299 292 281 280 280 281 282 279 279 279 285 290 289 286 286 287 284 285 288 284 284 284 287 286 283 284 279 283 287 284 282 276 279 279 280 282 287 288 288 288 290 291 293 292 292 291 290 290 292 292 292 293 293 293 292 292 292 293 293 293 293 293 293 291 288 288 288 289
299 299 299 300 297 295 289 287 293 294 293 296 300 303 304 304 301 300 297 298 298 296 288 279 283 281 284 281 280 281 286 282 282 283 281 283 283 281 281 281 283 284 281 280 279 282 286 286 279 278 279 280 280 282 285 290 290 290 289 290 291 290 291 291 292 292 291 291 292 292 293 292 292 292 292 292 292 293 293 292 292 291 289 287 287 288 288
298 298 294 292 288 284 285 289 293 297 301 301 302 295 290 292 289 284 286 287 287 297 284 285 281 281 284 285 283 287 287 281 282 285 281 280 282 283 280 283 283 283 281 279 282 287 280 279 278 280 278 281 285 287 287 290 289 290 291 291 290 291 293 293 293 293 291 289 288 290 291 291 291 291 292 290 291 292 292 291 290 290 289 289 288 288 288
295 291 289 288 287 284 285 290 296 300 297 297 294 289 287 283 284 285 283 284 284 287 283 285 283 283 285 285 284 288 289 285 279 278 281 281 282 279 282 281 281 279 277 278 282 284 282 279 275 276 277 280 285 288 289 289 289 289 290 290 292 293 294 294 294 294 292 291 291 292 292 292 291 291 291 290 291 292 291 290 290 290 290 289 288 288 288
288 286 283 283 284 286 292 295 298 295 294 289 284 284 284 283 283 282 281 283 283 280 281 284 284 284 288 289 285 283 286 287 284 278 277 281 285 281 280 280 280 278 276 273 277 278 278 278 274 276 275 277 283 287 288 289 290 290 289 290 291 292 293 294 293 293 294 293 294 293 293 293 293 292 291 290 290 290 289 290 290 290 289 289 288 288 288
286 285 283 281 286 288 291 293 293 290 286 285 285 282 280 281 282 282 282 278 279 281 283 282 282 286 286 284 284 282 286 289 284 283 279 281 283 282 278 278 280 278 274 274 277 278 274 276 273 276 279 279 284 287 288 289 289 289 289 291 292 292 292 292 293 293 294 293 293 292 293 294 293 292 292 291 291 289 289 289 289 289 289 288 287 288 289
287 288 289 292 293 294 293 291 287 285 284 284 281 279 279 280 281 282 281 280 278 276 282 285 282 281 283 286 285 284 286 290 285 280 282 282 284 281 278 277 277 275 274 275 277 276 274 274 272 271 276 281 286 288 289 289 288 289 289 290 292 292 293 293 293 292 294 294 293 292 292 293 293 292 291 291 290 289 289 289 289 289 289 289 289 289 289
298 296 295 292 290 288 287 285 283 282 280 279 275 277 278 279 280 281 279 279 279 283 282 287 285 287 290 288 288 289 286 290 289 283 280 281 282 278 276 275 274 275 277 278 275 272 274 272 269 277 280 284 288 289 290 291 290 290 290 290 292 293 294 293 293 293 293 294 293 292 292 292 292 292 291 291 289 289 289 290 290 290 289 289 289 289 288
292 293 291 287 286 284 283 280 284 283 279 278 276 276 277 277 279 278 279 278 278 282 283 286 283 285 284 284 286 285 285 288 285 281 281 279 279 276 275 276 275 275 278 276 274 274 271 269 277 277 280 286 290 289 290 290 289 289 289 290 291 292 293 293 292 292 291 291 292 292 292 292 291 290 291 290 290 289 289 289 290 290 290 290 289 289 288
286 284 285 282 281 282 281 275 280 279 275 276 279 277 277 277 277 277 280 280 283 285 284 285 285 285 284 283 284 285 285 284 283 282 281 280 278 276 276 275 274 274 275 273 271 270 273 274 277 280 283 287 290 290 290 290 290 291 291 289 290 291 292 292 292 292 292 292 292 292 292 291 290 289 290 290 290 291 290 289 289 289 290 290 289 289 288
284 284 280 277 276 278 278 274 276 277 278 278 278 277 278 279 280 281 284 285 284 284 285 286 286 287 282 282 284 285 280 281 283 281 279 277 275 277 276 278 277 275 272 269 270 269 271 274 276 283 287 290 291 291 291 291 291 291 291 291 290 290 292 292 292 292 292 291 291 292 291 291 290 289 289 289 289 290 291 290 290 290 290 290 289 289 289
284 284 283 280 277 278 280 277 275 277 282 281 279 278 281 283 283 284 284 285 285 286 286 286 286 286 285 283 285 283 281 279 280 280 279 280 277 278 279 279 275 271 271 269 268 266 269 275 276 281 286 289 290 291 291 291 291 291 292 291 291 291 291 292 292 292 291 291 291 291 291 290 290 290 289 288 288 290 290 290 290 291 291 291 290 290 289
282 283 283 277 274 278 279 276 279 279 279 280 280 280 281 282 281 283 285 285 285 285 285 285 283 282 285 282 283 281 280 279 281 281 280 280 280 274 272 271 270 270 270 271 268 271 275 276 279 283 287 290 291 291 291 291 291 292 292 291 291 291 291 292 292 292 291 291 290 291 291 290 290 289 289 289 288 289 290 291 291 290 291 291 290 290 290
283 281 279 277 280 281 278 278 281 280 280 280 281 281 282 283 282 284 286 284 284 287 287 285 281 284 283 283 282 283 282 282 278 279 281 277 275 273 271 270 269 271 271 272 273 275 278 281 282 285 288 290 291 292 292 293 292 292 292 292 292 292 292 292 292 292 291 291 291 291 290 290 290 289 289 289 289 289 290 291 291 291 291 290 290 290 289
283 280 281 280 279 277 279 279 279 278 279 281 280 280 280 280 282 285 284 286 287 286 286 286 285 285 284 283 280 278 280 280 279 280 276 275 272 273 271 270 269 271 269 274 276 278 280 280 284 286 289 290 291 292 292 292 291 293 293 293 293 293 293 292 292 292 292 291 291 291 290 290 290 290 290 290 290 290 289 289 290 291 290 290 290 290 290
282 282 279 280 279 277 280 277 276 276 279 279 279 280 280 281 282 284 285 287 287 284 281 284 283 282 282 279 278 278 280 281 280 278 276 274 275 273 274 273 271 274 278 280 281 281 281 281 286 287 288 290 291 292 293 293 293 294 294 293 293 293 293 293 293 292 292 292 291 289 290 290 290 291 291 291 290 289 289 289 290 291 290 290 290 291 290
279 278 277 278 280 280 280 280 280 280 280 280 280 280 281 282 283 286 287 285 284 282 281 280 283 281 277 277 278 280 283 279 278 277 277 277 277 275 272 272 278 280 281 281 283 283 282 283 286 288 290 291 291 292 293 294 294 293 293 293 293 293 292 292 292 292 292 291 291 291 291 290 290 290 290 290 289 289 289 289 289 289 289 290 290 291 292
Wind_Speed
19 18 17 16 14 12 12 13 12 9 11 3 3 1 1 3 0 3 4 1 5 1 1 2 1 2 2 4 6 8 10 9 9 8 7 1 1 1 2 3 2 4 2 1 1 5 3 7 5 2 3 4 10 5 12 9 9 10 3 4 4 5 1 1 4 5 6 7 4 2 3 8 1 0 3 6 6 6 7 3 6 7 3 2 1 1 2
18 19 18 18 17 16 13 12 12 8 6 2 3 1 1 0 0 2 1 0 5 1 1 1 1 3 4 4 8 8 9 8 10 5 4 1 1 1 1 2 3 2 4 1 1 3 1 5 8 5 2 3 11 9 10 12 6 9 5 7 3 3 2 4 0 0 0 1 3 1 0 1 3 4 3 4 4 5 3 7 1 2 6 6 8 6 2
19 19 19 18 18 16 15 14 12 8 3 1 0 0 0 0 1 1 2 3 3 3 1 1 2 3 6 6 9 7 5 5 9 8 6 2 2 1 2 4 0 2 2 3 3 4 5 3 6 5 5 5 2 10 9 10 5 6 5 6 7 6 3 4 3 5 6 7 10 9 5 8 1 0 5 2 9 7 5 3 0 3 2 3 1 2 2
19 19 19 19 18 16 14 13 10 9 6 2 1 0 0 1 2 2 1 0 1 2 1 2 3 6 8 7 6 5 4 3 6 5 4 7 4 3 3 4 4 3 1 1 0 0 1 2 4 5 3 3 1 6 11 9 5 7 10 8 8 3 2 3 7 7 7 8 5 3 6 2 4 1 6 3 3 5 6 6 5 6 3 5 2 9 10
19 20 20 19 18 16 15 12 10 7 6 2 1 2 1 0 3 1 1 2 2 5 1 3 4 4 1 3 4 5 5 5 7 3 1 3 2 1 4 3 1 2 1 1 1 2 1 4 3 3 4 3 2 5 13 10 10 12 8 9 6 3 4 4 5 3 4 4 4 3 4 7 2 6 6 3 7 7 9 7 7 6 9 6 2 10 17
20 20 21 19 19 17 16 13 9 7 4 3 2 1 1 2 1 1 3 2 2 2 5 7 8 9 5 5 2 5 6 4 2 6 2 4 2 1 3 0 2 2 1 1 2 1 3 2 1 2 1 1 4 1 3 9 12 12 5 7 5 5 5 2 4 2 3 1 5 2 6 4 3 3 2 3 1 2 9 6 5 9 6 8 12 16 16
20 21 21 20 19 18 17 15 12 7 4 1 0 1 1 1 2 2 1 0 2 3 4 2 5 7 7 3 2 4 4 6 1 1 4 3 4 1 1 5 7 7 4 2 1 1 3 2 1 1 1 2 2 1 1 3 3 11 5 5 2 6 0 2 3 4 4 6 5 1 13 3 6 4 4 1 3 3 2 4 1 5 3 5 18 17 12
21 21 21 20 19 18 17 16 12 9 3 2 1 2 1 1 0 1 0 2 4 4 2 1 1 4 4 4 5 2 2 5 5 3 1 3 4 2 0 5 7 7 5 2 3 0 2 2 0 1 2 1 3 1 2 3 1 6 6 5 2 5 2 4 1 4 3 6 6 1 9 9 7 3 6 6 3 7 3 3 4 10 9 9 14 10 6
23 22 22 21 21 18 18 16 14 9 2 0 2 2 3 2 2 2 3 3 3 1 0 2 1 0 2 2 4 1 2 1 4 6 3 4 3 1 3 4 8 2 4 4 2 1 1 2 1 3 4 5 1 2 2 2 7 6 4 3 1 3 2 3 2 5 2 2 4 2 8 10 9 4 7 8 3 6 2 5 3 6 10 12 13 9 4
22 22 22 22 21 19 18 16 13 10 2 2 2 3 2 3 2 1 0 1 2 2 3 2 1 2 3 2 1 1 4 2 5 4 4 4 7 4 5 5 2 4 3 4 1 0 2 1 1 1 6 11 7 2 2 1 8 7 3 1 5 3 7 3 1 7 2 2 1 1 3 5 2 1 2 3 3 1 0 2 2 1 18 14 11 13 13
24 22 22 21 21 20 18 17 14 11 5 1 2 3 2 3 4 3 1 1 2 1 3 2 1 2 3 2 2 3 4 3 0 2 3 2 3 0 3 4 2 1 1 0 1 0 1 4 3 1 6 12 7 2 7 13 10 2 8 3 2 3 11 4 0 5 4 2 4 2 2 3 5 2 1 3 1 3 4 2 1 6 2 3 3 9 14
22 24 22 21 21 20 19 17 15 14 9 4 1 3 1 2 3 3 1 1 2 2 0 4 4 2 2 5 3 3 5 7 4 4 4 3 7 9 6 1 1 2 1 2 1 2 2 0 1 2 2 5 12 13 15 14 10 8 2 7 6 6 6 5 1 7 6 1 1 3 3 5 3 5 3 3 4 7 8 4 4 5 4 2 10 17 21
24 24 23 23 22 21 20 17 16 15 12 6 3 5 1 1 2 3 4 3 3 2 2 5 5 6 7 6 3 6 8 8 5 6 6 4 6 4 3 2 2 3 0 3 4 4 2 1 2 2 4 5 7 11 13 12 13 11 10 4 11 8 8 4 5 2 2 2 1 3 4 3 3 4 3 3 6 6 8 6 3 3 3 4 8 12 14
24 24 24 24 23 23 21 19 18 15 14 10 5 4 1 1 2 2 2 2 5 2 2 8 5 4 4 3 4 5 4 4 4 2 3 5 6 8 7 4 5 2 0 3 5 5 3 4 1 3 3 6 4 5 5 2 8 12 11 9 4 11 6 6 4 2 4 3 3 1 2 4 1 1 2 5 4 8 7 7 6 1 1 3 11 12 14
24 24 24 24 24 23 22 22 20 17 13 10 5 4 4 4 3 2 2 2 3 6 2 1 6 5 5 5 2 3 2 2 3 1 3 1 3 5 6 5 3 2 0 1 1 5 2 2 3 1 3 2 2 1 3 3 5 5 5 3 4 1 6 4 8 1 4 6 4 2 3 2 6 8 4 4 3 3 2 7 1 2 1 2 12 15 16
23 24 24 24 24 24 24 23 21 18 14 12 5 4 4 4 3 2 3 1 2 5 3 5 3 3 3 3 3 1 1 2 1 2 5 2 3 5 5 4 3 1 1 5 2 3 1 2 1 3 1 1 1 1 1 3 2 3 3 4 9 10 10 6 8 5 4 2 5 4 5 7 7 10 7 5 3 5 3 4 3 3 6 6 11 15 14
23 24 24 24 24 24 24 24 23 20 16 14 7 5 4 5 6 5 3 3 2 5 8 8 3 2 2 5 5 2 0 1 1 1 2 2 2 2 7 5 2 1 2 3 4 2 2 5 2 2 0 0 1 2 1 1 0 2 4 5 9 8 4 4 7 4 2 6 4 3 4 1 1 5 3 5 5 2 3 1 7 9 9 12 13 17 17
23 23 24 24 24 24 25 24 24 22 18 17 8 7 6 2 6 4 2 3 2 5 5 3 1 1 1 1 3 4 0 0 1 1 1 3 3 2 3 3 3 2 1 1 1 4 2 2 2 2 1 1 0 2 2 3 3 2 0 1 1 3 3 5 6 5 3 6 1 2 3 3 3 5 6 4 4 3 4 10 4 11 12 14 15 14 16
23 23 23 24 24 24 24 24 24 24 22 19 11 6 3 5 5 6 2 3 3 4 7 4 4 4 2 3 1 1 2 1 1 1 3 3 0 2 2 3 0 1 6 2 4 2 2 1 0 3 3 1 1 3 1 2 3 0 1 2 2 1 3 1 4 4 4 2 4 4 2 4 4 1 8 4 4 5 10 4 2 15 13 11 15 15 13
24 24 24 24 23 23 23 23 24 23 23 21 11 6 9 3 6 8 7 3 2 5 9 5 3 4 3 2 1 2 2 2 2 2 1 0 3 4 2 1 3 2 1 3 2 1 3 2 1 1 1 1 1 2 3 2 0 3 1 1 2 6 4 3 4 2 4 2 3 2 1 2 9 10 2 2 3 5 3 2 3 13 15 15 13 13 11
24 24 24 24 24 23 23 22 22 22 21 21 13 7 7 0 5 6 7 3 3 5 8 2 1 4 2 5 5 4 2 2 2 1 3 5 2 2 1 2 3 1 0 1 1 0 2 1 1 1 1 4 0 1 4 2 1 1 0 1 1 1 3 0 1 4 5 3 4 4 3 1 9 14 10 6 5 3 5 7 9 3 9 13 13 12 12
24 24 24 24 23 23 23 22 21 21 21 19 16 3 4 5 2 3 5 3 5 5 6 8 3 9 12 8 9 8 6 3 4 4 2 2 2 2 1 1 1 1 1 3 2 1 1 2 1 2 2 1 1 1 2 3 3 1 1 2 0 2 1 4 6 3 3 5 5 2 2 4 3 2 1 2 1 4 7 7 14 13 6 7 11 12 11
24 24 24 24 23 23 23 22 22 21 20 19 13 1 6 7 5 1 5 4 4 5 6 6 5 5 5 4 7 11 10 4 4 1 3 1 3 1 1 0 2 1 0 1 1 3 2 5 2 4 2 2 7 2 1 1 2 1 2 1 1 1 1 1 5 0 1 0 2 2 2 2 1 3 2 1 3 2 4 8 9 6 11 12 13 12 13
25 24 24 25 23 23 24 24 23 22 20 17 11 7 7 5 6 3 3 3 0 5 5 1 3 5 3 7 7 4 1 0 3 4 1 3 0 3 2 2 2 1 0 1 3 1 2 2 1 2 2 2 3 3 5 1 2 4 2 0 1 1 0 1 3 0 3 1 2 3 1 1 1 3 4 5 3 2 4 6 8 9 8 10 11 13 14
25 25 24 25 25 25 26 24 23 22 21 20 15 6 6 5 3 4 1 1 2 1 1 8 3 2 3 6 6 2 1 2 1 2 2 2 3 2 2 1 1 1 2 1 1 5 2 2 1 1 2 2 4 1 1 4 1 2 3 2 1 1 3 5 1 3 2 1 0 1 1 1 1 0 5 4 4 5 4 5 6 9 8 11 12 12 13
25 25 25 25 25 26 25 24 24 23 21 21 16 7 4 6 1 0 1 0 1 1 1 3 6 5 3 7 4 4 4 3 3 6 4 1 0 3 3 1 1 3 3 3 3 4 3 3 3 1 4 1 0 2 2 2 2 1 3 6 6 1 2 2 3 3 1 0 1 1 3 4 3 3 2 2 6 9 9 9 12 13 14 12 9 9 12
25 25 25 25 25 25 25 24 24 23 22 23 12 5 6 7 4 5 2 3 0 2 2 3 5 8 5 6 5 4 2 3 5 5 5 5 5 4 4 3 1 3 3 3 4 5 4 2 3 1 1 0 2 2 2 2 2 2 2 1 0 2 3 2 5 4 1 7 6 7 6 4 2 0 3 5 4 8 10 10 11 13 14 13 14 11 11
25 25 25 25 25 25 24 24 23 23 22 24 13 8 5 5 5 4 3 2 4 1 2 3 5 7 5 3 4 5 4 2 4 5 5 5 6 7 6 4 3 2 3 1 1 3 2 4 1 1 0 0 3 2 2 1 3 3 2 0 1 1 4 5 6 8 7 4 5 3 2 3 2 6 4 4 6 10 12 11 12 11 12 14 16 15 13
25 25 26 26 25 24 25 24 23 21 22 18 10 8 0 5 6 4 2 1 3 1 1 4 4 2 2 3 5 6 4 4 4 4 4 6 6 6 5 5 4 3 3 5 4 3 2 1 1 1 1 1 6 1 2 1 1 2 2 1 1 3 6 7 5 5 1 3 8 4 3 7 5 5 5 5 5 9 9 8 9 11 12 12 13 14 16
26 26 26 25 25 25 25 24 23 18 16 8 5 3 1 3 1 1 2 5 3 1 1 2 3 2 3 1 3 2 2 3 4 4 5 4 5 5 4 4 3 2 3 2 2 3 1 1 0 1 2 2 2 1 2 1 1 2 2 1 3 2 2 1 2 1 1 2 5 2 4 6 6 7 6 6 6 9 11 10 10 10 8 10 13 11 12
27 25 26 26 25 25 25 24 22 18 10 5 2 2 1 0 1 2 2 5 4 1 1 1 4 4 4 2 0 4 4 2 1 2 2 1 0 1 2 1 1 2 2 3 3 0 1 3 1 2 2 3 3 2 4 3 0 1 1 1 2 1 3 1 1 2 7 7 7 6 6 8 6 7 5 5 5 7 7 6 7 9 9 10 11 11 10
26 27 27 27 26 25 25 24 21 14 5 2 3 3 2 3 2 2 4 7 3 1 0 2 4 4 1 5 3 2 1 1 1 2 1 3 2 3 3 5 0 2 2 2 1 1 2 1 1 1 2 2 5 3 3 3 4 3 2 2 1 1 2 4 5 5 6 11 14 11 8 3 7 11 8 6 6 7 10 8 8 9 11 9 9 9 9
27 28 28 27 27 26 24 23 20 11 6 8 11 16 20 23 23 17 6 1 1 1 2 1 1 1 1 4 6 4 1 1 2 4 2 1 0 2 2 4 2 2 2 4 3 1 1 1 0 3 1 2 2 1 3 1 3 2 2 1 0 1 3 3 5 6 9 9 13 13 10 11 5 2 8 8 8 9 10 10 9 9 9 11 11 11 10
28 28 29 28 27 26 23 21 19 14 5 2 4 3 2 3 2 2 1 1 0 0 1 0 1 1 4 4 3 5 2 1 2 1 0 2 0 1 1 2 3 2 4 3 1 1 1 2 2 1 3 3 2 2 1 2 2 1 1 1 1 3 4 5 5 6 3 2 4 3 10 6 6 7 8 7 7 7 10 9 10 12 11 11 11 10 11
29 29 29 29 27 24 22 16 4 2 2 3 4 4 1 9 11 3 3 2 0 1 1 1 1 0 3 4 1 5 1 1 1 0 1 3 1 1 0 2 4 4 2 2 3 1 1 0 3 3 0 2 2 0 3 4 2 1 1 3 2 5 6 6 1 1 3 4 8 9 10 11 12 9 8 7 9 8 11 11 11 12 11 9 9 10 11
29 30 28 28 27 16 3 0 1 0 1 1 4 7 18 18 12 6 4 3 1 2 1 2 0 1 2 1 2 3 1 1 1 1 0 1 2 2 3 2 2 0 0 3 0 2 1 0 1 0 1 1 2 2 4 6 6 5 5 6 8 9 8 10 9 4 3 6 9 9 10 10 12 9 8 8 8 8 10 10 9 10 10 9 9 9 9
29 29 29 22 7 2 1 0 1 3 0 5 14 21 22 11 1 2 2 1 1 0 1 1 0 4 4 3 1 5 2 1 4 1 4 3 1 2 3 1 1 2 2 4 3 3 1 1 4 1 0 1 3 3 5 6 9 10 6 6 5 2 6 4 7 10 10 8 9 9 10 9 8 7 8 8 7 8 10 11 10 11 12 11 9 9 10
29 25 7 3 2 1 1 1 0 7 15 18 11 4 3 4 0 1 1 1 2 1 1 1 3 2 1 1 3 2 1 2 2 0 1 0 1 0 0 1 0 1 0 1 1 0 1 5 2 1 2 4 5 4 3 5 4 2 5 6 5 4 7 7 8 11 11 8 5 7 7 9 8 6 9 7 7 8 8 7 6 7 8 8 8 9 9
16 5 4 3 1 1 1 1 8 20 13 5 1 0 1 1 1 0 1 0 1 1 1 2 5 3 4 2 5 4 1 1 1 3 1 1 1 2 1 0 2 3 1 1 3 4 1 2 2 3 3 3 4 1 1 2 1 3 3 4 6 6 9 7 9 13 12 10 10 10 11 10 11 7 6 7 5 6 7 8 8 8 9 8 8 9 10
5 8 4 4 1 3 5 7 14 10 1 0 2 1 1 1 2 2 0 1 1 1 1 2 4 4 6 7 4 4 0 1 1 3 2 1 0 0 1 1 1 1 0 0 4 3 1 1 1 2 4 3 2 1 2 4 4 4 3 4 5 5 6 9 5 4 9 9 9 7 6 7 7 8 7 7 7 8 7 8 8 8 9 9 9 10 11
4 2 3 2 5 5 7 10 7 0 1 0 1 1 1 1 1 1 0 0 0 2 1 2 0 0 1 1 3 3 3 2 1 2 3 1 1 2 2 0 1 0 0 1 2 2 2 1 1 1 5 4 5 4 4 2 3 3 3 4 6 6 5 4 5 5 7 8 6 5 6 7 8 8 7 8 8 7 7 8 8 9 9 9 11 11 8
4 4 5 6 7 9 8 3 0 1 1 0 1 1 1 2 1 2 1 2 2 1 2 1 1 1 3 6 5 4 0 1 2 1 1 0 0 0 0 1 1 1 1 2 1 2 2 0 1 4 6 6 4 4 5 5 4 4 4 4 5 5 6 6 6 4 6 9 6 6 5 7 8 7 7 8 8 8 8 9 9 9 11 10 9 8 8
16 11 4 4 3 2 0 1 1 1 1 0 2 1 1 0 2 1 1 1 1 1 3 0 1 1 1 2 1 0 1 1 0 1 1 0 0 2 2 1 1 0 0 1 1 2 1 1 2 7 6 5 6 7 7 7 6 5 5 5 6 7 8 7 8 6 5 8 8 7 7 7 7 7 7 8 8 7 6 8 10 9 8 9 9 9 9
2 1 1 1 1 2 1 0 1 1 1 0 2 1 0 1 2 1 0 1 1 0 1 3 4 3 4 2 1 0 0 1 2 2 1 0 1 0 1 0 1 2 0 1 1 1 3 3 7 3 3 3 4 6 7 5 5 4 4 4 5 6 6 6 5 6 4 3 5 6 6 7 5 5 6 7 10 10 8 8 8 11 10 9 9 9 9
1 1 0 0 0 1 1 2 1 2 2 2 1 1 1 1 2 1 1 2 1 2 2 0 0 2 4 5 1 1 1 1 1 2 1 0 1 0 1 1 1 1 1 1 1 1 1 2 4 2 3 6 8 8 7 6 7 8 6 4 5 5 6 7 7 7 6 6 6 7 7 6 7 7 6 7 7 10 11 9 7 8 9 10 9 8 7
2 0 1 2 2 1 0 1 0 0 2 2 0 4 1 3 2 3 4 0 2 6 7 6 1 0 3 3 2 2 1 2 1 0 1 2 2 1 1 0 1 0 1 1 0 2 5 5 5 7 8 9 9 8 7 7 6 5 7 8 7 6 7 8 7 7 8 7 6 7 7 6 8 8 7 6 7 8 9 9 9 10 9 9 10 10 9
0 0 0 0 0 2 1 1 1 1 0 0 0 2 2 4 5 6 3 0 4 6 6 2 3 4 2 3 0 2 1 1 1 1 1 1 1 0 1 1 1 0 1 1 2 3 4 6 6 7 5 6 5 7 7 6 6 7 8 6 7 7 7 7 8 8 7 7 7 7 7 7 7 7 7 6 5 7 8 9 10 10 11 12 11 10 9
0 2 0 1 2 1 1 2 0 1 0 2 2 2 5 3 3 6 6 3 5 4 5 5 5 2 1 2 2 3 1 0 1 1 0 1 1 2 1 1 0 1 1 2 4 5 5 5 5 5 6 7 9 9 8 7 7 8 8 8 8 8 8 8 8 7 7 8 8 7 7 7 7 7 7 8 7 6 7 9 10 9 10 9 9 10 11
1 0 0 1 1 0 2 2 4 4 4 5 4 2 4 7 6 6 6 3 5 8 6 3 2 2 1 0 2 1 1 0 2 2 1 1 1 2 1 1 0 1 4 5 5 5 6 6 4 3 5 7 7 9 10 9 9 10 10 10 9 10 8 8 8 8 7 7 7 7 7 7 7 7 7 7 8 7 6 8 10 9 8 10 11 11 10
0 1 0 0 2 2 3 1 1 3 5 7 6 6 5 4 6 6 3 7 7 7 4 1 1 1 1 1 0 1 1 1 1 0 2 1 1 1 2 0 3 3 2 3 5 7 7 5 2 3 5 7 8 9 9 8 9 10 9 9 8 9 9 9 8 7 8 7 7 8 7 7 7 8 8 9 7 6 6 6 8 10 9 9 11 11 11
0 0 2 2 3 3 2 3 1 4 7 6 5 5 4 6 4 7 3 4 8 7 3 1 1 1 0 1 2 1 2 1 2 2 3 3 1 3 3 2 4 7 8 7 6 6 6 3 5 5 5 7 9 10 10 11 11 11 10 9 8 8 8 9 9 9 8 8 7 8 8 8 8 8 7 6 6 7 7 8 8 9 10 10 10 11 11
0 0 1 2 0 2 2 2 1 4 5 5 3 4 2 4 4 7 2 4 4 4 4 3 2 0 2 1 3 2 0 2 0 0 0 2 2 3 3 6 7 7 8 6 7 6 6 6 6 7 8 9 10 11 10 9 8 7 8 9 9 9 8 8 8 8 8 7 7 7 8 7 7 7 7 8 7 8 9 9 8 7 8 9 9 10 11
Wind_Direction
348 349 349 350 352 348 348 346 349 353 350 9 332 306 10 39 167 254 297 193 144 129 310 198 211 214 239 309 294 262 260 263 277 294 299 24 309 272 233 219 159 248 172 173 207 161 183 169 206 189 180 224 204 227 181 162 155 149 183 129 228 134 217 204 295 297 297 286 287 71 179 127 73 314 84 130 169 171 162 164 181 141 155 103 34 145 254
349 350 349 347 347 349 349 348 340 347 18 339 314 322 45 249 261 351 343 97 159 293 261 339 328 286 291 293 279 283 276 273 280 274 285 104 334 238 262 314 196 277 219 196 245 180 114 205 165 229 198 230 220 200 182 173 179 153 214 167 218 149 283 117 340 7 336 295 351 35 19 259 156 172 201 164 118 88 137 106 83 101 220 170 141 225 232
349 349 348 347 347 346 347 345 344 334 337 9 32 87 258 344 304 271 307 7 135 221 206 312 315 319 308 307 292 287 273 239 258 263 288 310 225 266 263 213 217 277 234 225 222 227 181 153 205 174 167 238 220 203 176 192 180 182 176 153 150 173 192 128 189 170 169 192 194 204 195 209 266 142 124 143 126 130 106 136 93 148 256 112 141 134 269
348 348 348 346 346 345 344 342 336 338 319 151 85 207 325 306 94 319 14 351 45 275 250 304 289 299 302 297 262 246 275 282 259 247 239 221 232 214 255 284 220 237 226 285 197 31 25 104 188 185 226 251 205 182 193 180 187 181 166 153 132 159 127 127 161 164 191 207 212 237 122 88 148 187 141 182 137 141 117 116 104 191 197 159 219 158 147
349 347 347 345 343 343 343 340 335 324 326 317 262 264 189 244 115 167 192 8 237 258 217 246 237 244 263 295 341 310 309 294 304 101 10 251 190 251 198 245 15 305 57 321 17 11 25 28 87 214 203 233 241 192 178 191 194 175 171 166 109 96 176 207 138 190 228 229 224 197 184 159 186 153 169 156 152 152 135 147 214 168 103 242 113 163 141
348 347 347 346 345 345 344 341 340 328 320 333 281 274 219 93 253 195 215 168 228 217 269 220 234 246 267 267 292 278 305 328 326 316 256 301 290 137 323 10 238 280 300 256 65 325 76 42 129 316 240 43 338 67 198 183 192 177 187 174 149 149 171 200 116 14 326 331 284 139 80 77 129 90 95 135 34 171 159 203 174 138 150 205 176 171 164
348 347 347 348 347 346 345 345 345 335 329 117 110 307 249 208 271 252 271 197 259 194 262 205 208 243 211 262 255 291 285 294 253 229 306 351 313 32 10 316 336 349 9 111 101 76 68 327 294 170 301 121 73 63 42 259 211 175 169 164 164 107 157 181 136 103 28 345 339 320 109 120 58 34 26 20 165 191 143 141 173 155 153 159 158 174 179
348 347 348 349 349 348 348 349 347 341 7 120 185 250 306 176 289 268 317 204 267 262 286 301 8 217 238 227 248 235 238 286 329 320 313 331 302 313 86 297 343 345 4 63 86 58 163 166 23 286 159 355 78 211 191 179 144 178 173 161 257 107 247 166 130 77 348 343 351 31 116 116 91 34 25 23 69 80 87 104 112 87 65 110 132 135 129
349 349 348 349 352 350 351 352 350 349 20 8 246 287 204 272 240 267 285 297 240 232 299 323 11 40 309 167 273 237 279 308 6 297 223 201 235 323 300 319 336 337 29 48 75 230 183 176 224 270 175 98 276 150 278 139 145 162 150 169 101 87 161 46 70 82 326 335 18 33 96 92 102 67 20 10 33 113 165 131 216 128 139 130 123 122 151
348 348 349 349 353 351 349 353 349 351 40 292 308 284 334 289 262 263 166 253 323 351 277 261 239 247 216 196 250 288 266 296 351 328 294 236 230 239 289 303 9 323 39 40 20 324 190 173 60 225 109 98 57 34 46 105 156 151 113 339 122 136 128 127 117 93 280 247 10 331 349 76 41 333 288 288 269 258 108 329 42 201 143 128 145 205 178
350 348 348 349 351 353 351 350 351 352 343 297 296 288 338 354 327 323 309 283 298 222 319 290 171 247 290 239 260 245 269 281 200 187 276 329 289 108 4 306 255 259 194 334 264 203 191 149 128 54 73 94 100 35 52 50 44 71 141 92 63 120 131 138 140 119 202 259 340 338 94 165 222 269 259 193 205 170 130 124 90 112 73 205 206 152 134
350 350 349 350 350 350 353 350 350 349 351 304 254 280 259 275 289 276 273 315 275 204 237 280 238 267 257 267 257 252 274 278 238 188 240 283 291 313 313 299 113 357 242 231 14 79 77 52 355 329 57 56 67 40 37 39 25 32 29 126 121 117 95 108 170 109 189 265 15 69 182 229 275 297 287 205 168 113 108 91 57 355 329 121 121 141 157
350 349 349 349 351 349 350 352 349 347 347 329 271 255 217 54 318 285 286 301 284 310 317 291 272 259 261 269 270 265 248 256 260 233 233 252 293 303 240 205 177 234 261 65 52 90 90 285 358 337 319 354 38 45 14 21 20 18 30 28 125 146 118 159 50 76 60 55 39 169 237 275 324 333 340 142 118 128 96 42 349 32 311 167 142 150 144
349 349 348 349 350 350 349 349 352 349 337 332 296 248 253 210 250 299 320 345 299 250 257 285 295 310 321 282 233 268 295 288 286 199 233 224 219 259 278 223 216 223 157 108 68 81 53 32 52 20 320 3 3 46 319 330 35 28 11 11 28 126 106 110 92 347 141 139 63 43 322 323 352 341 216 194 159 180 164 161 227 227 289 161 142 142 140
348 347 347 348 348 348 349 349 348 347 337 332 308 286 229 210 201 233 307 312 296 293 226 287 321 324 329 323 334 324 350 288 14 250 243 282 222 224 219 242 250 299 97 118 44 42 135 101 40 61 330 49 105 257 332 20 312 24 36 20 53 7 127 213 109 296 115 130 98 35 25 278 245 224 246 224 214 154 170 100 276 293 228 186 149 151 147
346 345 345 346 347 346 347 347 347 345 341 340 304 301 251 214 213 233 272 257 299 326 282 226 278 319 327 301 319 293 326 356 312 307 332 314 255 333 301 271 273 156 68 71 83 94 60 96 189 94 171 179 255 55 337 343 353 314 29 31 60 42 72 104 107 144 89 78 130 191 164 239 207 203 208 220 183 157 136 71 236 238 168 151 157 147 153
344 344 344 344 345 344 345 346 346 346 341 345 331 304 275 181 197 195 206 241 224 235 282 297 286 260 315 333 0 356 140 6 312 48 340 322 302 246 277 323 315 46 92 75 26 67 48 65 97 127 313 240 97 179 109 69 51 326 328 10 51 46 13 45 67 110 182 139 118 200 204 215 260 181 179 204 160 150 66 108 259 185 178 156 160 156 155
343 343 343 342 342 343 343 344 345 345 344 342 332 309 270 213 201 182 220 250 280 285 263 257 163 324 241 177 222 259 170 14 25 340 237 273 326 325 308 353 356 340 105 96 76 69 85 109 120 127 130 268 185 105 204 173 149 211 193 15 45 9 11 51 150 148 143 119 243 349 309 279 256 177 171 189 178 105 160 207 241 178 167 165 157 161 155
341 341 341 341 341 342 342 343 344 345 346 345 335 304 239 221 208 200 259 225 221 265 257 258 274 276 243 144 202 225 220 221 188 127 293 15 313 267 273 277 108 276 3 136 69 83 105 324 88 106 120 299 24 173 184 118 213 93 78 62 51 28 88 22 84 91 146 192 126 215 230 234 164 37 159 198 126 186 216 236 194 153 158 158 155 156 162
339 339 339 338 339 340 341 342 342 344 344 348 350 302 276 226 208 199 194 221 224 256 289 251 190 221 306 275 255 80 294 25 152 126 138 136 283 4 31 20 322 78 344 63 42 219 99 166 173 99 60 161 246 171 49 298 358 162 183 196 131 197 116 182 153 162 55 37 70 22 208 232 148 129 50 321 153 233 211 117 123 160 149 146 149 150 153
337 337 337 336 337 338 339 339 340 342 344 346 350 330 324 314 183 226 233 243 323 318 297 277 278 265 235 257 235 197 121 323 185 261 224 208 241 82 90 190 243 45 237 136 148 258 149 107 179 137 206 137 205 47 192 171 337 245 119 183 187 216 84 220 265 184 142 139 153 199 213 253 172 152 178 192 188 169 149 138 127 126 149 151 150 153 145
336 336 335 335 335 337 336 337 337 338 342 343 343 319 269 262 231 218 215 225 240 213 239 297 308 280 273 239 232 223 211 122 258 174 150 248 280 221 195 181 234 189 215 124 42 29 28 136 63 99 156 132 31 145 147 91 192 253 348 107 101 216 167 181 169 202 130 190 211 245 254 225 257 6 236 146 149 145 167 152 153 149 167 153 147 146 138
335 334 335 333 334 334 334 334 334 334 337 341 345 208 281 302 297 275 162 198 249 269 273 288 302 283 276 267 229 211 224 202 172 194 150 148 312 301 187 117 306 235 87 117 164 158 192 131 197 157 95 185 154 137 42 132 181 211 162 264 175 317 167 188 90 247 227 217 197 259 357 11 5 19 4 108 117 96 119 143 140 165 148 159 151 143 142
333 333 333 332 332 332 332 332 332 331 332 336 337 308 293 253 262 307 224 234 171 304 315 331 29 1 326 319 314 315 138 78 193 203 171 146 167 309 334 256 229 16 16 242 183 132 190 124 202 130 139 210 96 110 146 229 232 179 93 348 315 264 132 58 98 206 78 274 339 32 330 343 65 94 40 40 47 93 139 142 138 132 132 120 131 139 142
332 332 332 331 331 330 330 330 329 329 329 332 332 274 261 289 222 190 164 295 327 83 242 312 301 233 286 281 248 291 22 359 333 95 84 105 159 146 219 257 172 204 268 284 95 62 49 125 164 95 117 240 127 217 230 110 260 141 94 248 73 260 152 72 88 93 112 225 257 329 345 40 348 8 128 112 95 84 69 100 113 114 110 124 134 134 135
331 330 330 330 329 329 328 327 327 327 328 328 334 315 309 265 247 217 217 355 111 115 5 308 281 305 313 0 345 285 303 9 32 56 46 19 224 205 230 302 57 36 102 76 85 113 122 60 86 121 119 209 84 145 179 201 170 138 135 213 198 190 86 171 165 93 341 345 25 101 74 19 17 34 34 98 131 121 113 118 121 122 123 125 126 133 137
329 329 327 327 326 326 325 324 325 326 326 327 329 289 247 271 245 196 217 273 322 337 21 269 272 300 358 323 273 331 352 12 15 44 35 29 38 31 71 63 85 12 56 37 39 118 67 96 96 92 154 202 111 132 144 74 104 116 103 310 60 81 90 163 87 80 215 195 194 172 131 222 205 4 151 126 115 112 117 120 123 130 131 135 133 134 135
327 326 325 324 324 322 321 321 322 323 326 327 318 295 233 233 245 222 233 166 39 229 243 262 297 290 316 272 280 314 312 52 63 51 27 10 27 39 52 62 91 63 19 75 348 21 29 70 80 223 153 321 57 29 18 122 70 47 59 245 168 149 194 139 158 168 220 223 175 158 104 76 110 164 157 131 131 125 129 139 138 137 136 139 137 138 138
325 324 323 322 320 318 317 318 318 320 326 331 311 316 252 228 254 282 326 283 105 109 194 257 298 342 27 267 323 325 324 46 48 53 47 10 19 24 49 54 75 137 92 71 95 106 101 153 173 88 42 189 100 185 31 63 70 177 235 250 199 241 190 189 175 139 237 180 150 163 151 160 164 152 142 133 136 126 123 129 136 139 140 142 139 144 144
323 322 320 317 315 313 313 313 314 318 328 335 335 35 18 308 251 194 36 41 53 111 36 11 7 263 299 322 281 289 305 351 29 33 35 20 9 12 0 32 34 56 90 122 137 87 220 131 321 299 320 11 122 177 82 168 111 243 263 308 278 287 138 134 162 120 203 162 132 148 115 110 116 137 136 138 140 134 136 141 141 136 135 137 136 138 141
321 319 316 314 312 311 309 309 309 314 329 332 1 36 43 355 298 240 42 18 25 107 151 134 238 283 336 264 201 278 283 321 12 17 327 358 271 318 321 80 30 87 41 356 45 94 103 21 31 334 329 43 104 100 160 121 144 310 284 336 295 173 137 119 77 136 125 106 93 83 93 110 113 86 76 114 127 123 119 123 126 128 133 130 133 135 136
318 316 314 313 311 309 306 304 303 310 293 220 187 182 174 201 241 227 327 336 288 59 296 337 336 358 291 313 292 278 313 328 56 18 351 16 354 12 4 57 32 11 116 102 172 60 50 203 105 323 40 336 76 99 80 89 150 227 299 353 345 187 150 118 103 101 113 118 103 81 84 91 155 147 168 165 136 133 129 132 130 128 126 121 120 123 128
317 315 313 310 309 306 303 300 297 297 261 248 254 276 277 275 277 283 294 291 63 160 131 91 211 240 316 262 317 315 329 9 11 29 285 335 298 22 19 3 15 29 356 82 5 84 199 120 105 58 332 20 79 97 87 149 210 245 265 293 292 175 121 110 119 128 143 147 139 144 173 171 186 137 128 134 132 130 129 130 135 124 119 121 119 117 116
317 314 311 309 306 304 301 296 296 293 265 282 283 255 253 257 332 278 146 118 81 322 68 133 305 319 270 311 25 283 32 94 279 65 336 303 223 69 297 16 351 81 347 74 263 81 350 64 63 295 340 17 38 76 5 265 260 270 27 31 103 96 95 98 115 130 128 74 11 100 134 121 107 112 105 114 120 128 126 126 131 130 133 132 133 132 131
318 313 310 308 304 300 300 302 313 122 201 249 267 248 250 342 342 259 206 279 13 339 14 331 109 23 336 350 46 273 338 89 305 195 114 283 36 67 312 50 322 68 290 86 47 68 45 296 168 65 278 319 45 33 246 233 242 186 117 109 118 106 90 85 31 53 84 88 102 104 112 122 121 126 132 128 130 136 134 139 141 135 136 136 132 136 137
317 313 310 307 302 300 296 159 161 79 32 285 244 302 313 311 319 292 196 203 156 153 110 253 62 217 150 227 317 280 320 23 347 314 289 320 360 36 92 101 63 51 289 77 149 351 68 296 67 293 307 59 237 189 233 191 180 182 182 167 178 160 169 166 154 131 93 109 118 119 121 130 135 140 135 137 136 139 139 138 139 136 131 133 138 138 134
316 314 311 304 303 92 353 219 305 91 237 270 282 289 287 289 242 79 63 102 259 124 179 173 42 241 168 224 258 278 58 283 337 19 337 37 240 290 38 41 79 303 37 6 11 43 310 50 103 97 348 179 254 244 239 196 171 170 195 184 169 106 92 97 127 119 108 112 122 129 133 134 132 136 133 137 144 142 141 146 152 146 146 146 145 143 146
316 314 320 352 31 38 10 335 15 315 320 303 308 312 354 39 221 335 358 56 270 65 326 72 228 245 331 95 245 250 76 263 59 177 297 238 86 309 11 92 238 55 81 265 264 170 43 38 44 124 265 250 254 270 245 189 189 179 152 158 161 151 136 134 134 121 119 114 122 134 131 140 145 155 142 145 143 145 144 133 128 131 132 138 143 140 137
315 312 19 14 75 228 203 257 331 326 310 277 73 50 285 11 75 313 238 257 20 256 280 144 242 186 148 202 276 290 177 130 23 29 149 274 128 290 14 293 293 68 343 14 288 48 51 341 356 19 298 297 343 310 69 135 139 160 164 167 152 159 146 151 153 144 151 161 166 166 159 162 158 160 145 136 134 126 133 133 132 134 138 141 140 141 145
353 11 1 340 339 265 295 302 328 317 323 35 330 102 238 325 110 263 310 95 307 286 91 236 212 172 187 197 216 294 349 81 274 263 189 299 340 138 258 97 271 94 231 101 254 33 108 267 293 38 293 273 248 248 162 172 160 166 159 152 145 164 161 153 166 158 147 147 150 152 147 143 145 143 150 142 137 135 139 139 140 139 139 143 143 144 155
11 336 342 332 290 318 307 319 321 15 56 48 356 2 60 313 276 193 63 55 163 235 200 185 345 218 281 90 132 212 285 89 137 123 113 121 246 87 56 86 244 85 317 271 276 63 72 83 1 213 243 231 208 198 170 167 187 167 169 164 155 154 147 130 124 126 124 124 126 127 135 137 136 140 144 139 137 139 144 143 144 147 141 138 153 164 157
271 271 255 280 288 286 297 306 77 30 7 75 128 265 233 227 314 350 130 143 241 239 309 178 267 221 249 181 200 156 203 189 123 109 98 89 293 137 201 314 7 95 239 236 143 61 75 84 294 284 258 239 218 162 158 179 193 167 175 163 158 150 143 139 138 152 145 143 146 140 140 136 135 137 142 135 138 140 141 141 144 149 156 164 158 142 145
295 286 245 266 304 290 228 338 299 103 144 317 46 331 337 244 230 190 274 266 299 108 263 286 237 217 301 50 5 210 192 227 188 312 70 214 293 56 84 17 54 2 233 329 66 58 25 233 243 251 252 216 186 175 186 182 178 180 176 170 165 167 154 150 156 161 166 147 146 145 146 140 141 146 143 131 128 132 143 148 153 161 161 155 154 151 148
265 201 196 219 334 284 93 242 283 59 345 54 112 203 249 328 308 17 8 277 277 337 296 34 320 47 285 308 170 289 356 355 52 78 53 306 84 340 54 191 223 245 351 42 43 165 221 222 212 226 253 211 187 183 181 177 167 158 162 193 172 158 160 152 137 126 135 125 128 135 137 138 129 134 135 134 141 144 151 155 163 158 160 154 150 154 153
65 346 344 358 2 270 75 288 330 118 202 249 151 194 152 170 245 187 204 247 126 279 297 38 142 33 299 274 11 318 116 188 313 101 233 81 61 11 104 258 252 34 79 241 330 320 342 283 275 272 240 198 198 190 183 176 171 168 171 164 170 167 156 154 158 152 153 153 153 142 143 145 137 144 145 148 151 148 149 157 165 157 159 158 154 147 157
49 89 48 75 322 299 127 218 13 338 289 150 196 200 162 264 187 253 261 153 306 312 336 307 273 191 266 258 151 237 346 92 77 229 158 67 103 239 244 239 75 68 11 39 19 232 221 240 247 239 217 203 184 183 178 183 177 158 145 171 187 174 178 165 165 161 164 157 153 150 149 148 148 147 155 157 150 154 158 156 157 163 164 155 158 161 164
358 319 129 83 124 275 84 160 236 185 212 289 220 193 232 268 223 234 257 322 313 297 301 253 231 210 242 267 193 319 17 52 126 264 77 96 181 263 5 103 253 189 146 267 248 254 269 257 244 240 208 190 184 177 180 178 173 173 179 166 166 180 181 172 166 166 169 155 157 154 152 156 155 154 144 143 158 164 160 158 164 166 163 166 168 159 158
176 266 68 134 237 209 186 246 273 293 349 52 299 281 276 274 12 350 319 282 261 327 319 320 334 337 279 285 87 186 220 3 106 285 169 163 40 43 13 36 302 254 185 174 233 223 234 250 253 237 204 183 174 174 181 181 180 181 177 171 176 178 183 177 176 174 161 161 165 165 162 162 157 153 155 162 168 173 166 167 166 170 173 165 158 158 161
175 88 117 216 215 195 241 263 7 334 294 323 278 286 349 8 349 308 294 318 330 309 275 234 215 124 270 191 115 112 229 340 105 230 37 35 108 202 147 214 19 311 265 180 220 217 222 237 243 204 173 167 181 184 188 184 178 181 183 181 181 182 180 183 184 176 169 167 167 166 171 170 159 159 162 161 166 184 180 171 166 172 175 164 163 165 168
214 314 326 171 345 310 265 311 62 318 322 338 4 343 338 356 333 306 321 342 318 314 315 115 92 114 226 119 21 14 247 241 149 46 67 157 195 176 75 350 231 193 256 241 227 244 241 242 176 161 186 183 186 185 184 187 184 187 190 187 180 174 180 183 185 178 175 175 173 175 169 162 171 174 173 176 181 170 165 170 177 177 178 173 165 166 171
289 162 239 173 174 225 32 341 330 317 324 318 320 305 351 326 298 299 345 339 326 338 15 230 237 118 151 37 66 79 242 176 93 165 160 193 192 113 170 198 238 211 229 233 223 240 247 219 185 189 190 195 192 194 194 188 187 190 187 186 184 180 180 184 183 178 181 181 178 172 172 180 184 180 181 171 162 160 171 183 187 185 179 178 175 171 174
19 262 267 297 208 174 180 200 179 221 228 247 280 254 6 309 280 282 315 350 352 35 324 300 344 16 69 182 216 191 105 44 65 82 54 271 156 144 210 201 224 225 224 250 269 252 243 229 206 197 193 196 197 196 193 192 186 180 180 185 183 181 182 185 187 183 179 178 179 181 187 185 176 176 170 168 167 167 180 193 198 191 185 179 183 183 179